TimeAKST,TemperatureF,Dew PointF,Humidity,Sea Level PressureIn,VisibilityMPH,Wind Direction,Wind SpeedMPH,Gust SpeedMPH,PrecipitationIn,Events,Conditions,WindDirDegrees,DateUTC
12:16 AM,35.6,32.0,87,29.78,9.0,East,8.1,-,0.01,,Overcast,90,2013-02-12 09:16:00
12:36 AM,35.6,30.2,81,29.77,9.0,East,10.4,-,0.02,,Overcast,100,2013-02-12 09:36:00
12:56 AM,35.6,32.0,87,29.76,9.0,East,10.4,-,0.04,,Overcast,100,2013-02-12 09:56:00
1:16 AM,35.6,30.2,81,29.76,5.0,ESE,9.2,-,0.02,,Overcast,110,2013-02-12 10:16:00
1:36 AM,35.6,30.2,81,29.75,6.0,ESE,9.2,-,0.04,,Overcast,110,2013-02-12 10:36:00
1:56 AM,35.6,30.2,81,29.74,10.0,ESE,8.1,-,0.05,,Overcast,110,2013-02-12 10:56:00
2:16 AM,35.6,30.2,81,29.74,8.0,ESE,8.1,-,0.01,,Overcast,110,2013-02-12 11:16:00
2:36 AM,35.6,30.2,81,29.73,10.0,East,6.9,-,0.02,,Overcast,90,2013-02-12 11:36:00
2:56 AM,35.6,30.2,81,29.72,8.0,ESE,5.8,-,0.04,,Overcast,110,2013-02-12 11:56:00
3:16 AM,35.6,30.2,81,29.71,9.0,ESE,6.9,-,0.01,,Overcast,110,2013-02-12 12:16:00
3:36 AM,35.6,30.2,81,29.70,10.0,East,4.6,-,0.02,,Overcast,100,2013-02-12 12:36:00
3:56 AM,35.6,30.2,81,29.70,10.0,Calm,Calm,-,0.03,,Overcast,0,2013-02-12 12:56:00
4:16 AM,33.8,30.2,87,29.70,10.0,Calm,Calm,-,0.01,,Overcast,0,2013-02-12 13:16:00
4:36 AM,33.8,30.2,87,29.70,5.0,Calm,Calm,-,0.03,,Overcast,0,2013-02-12 13:36:00
4:56 AM,33.8,28.4,81,29.70,5.0,Calm,Calm,-,0.04,,Overcast,0,2013-02-12 13:56:00
5:16 AM,33.8,30.2,87,29.70,6.0,Calm,Calm,-,0.02,,Overcast,0,2013-02-12 14:16:00
5:36 AM,33.8,30.2,87,29.70,5.0,North,4.6,-,0.04,,Overcast,360,2013-02-12 14:36:00
5:56 AM,33.8,30.2,87,29.69,3.0,Calm,Calm,-,0.05,,Overcast,0,2013-02-12 14:56:00
6:16 AM,33.8,30.2,87,29.69,3.0,North,4.6,-,0.02,,Overcast,360,2013-02-12 15:16:00
6:36 AM,33.8,30.2,87,29.68,3.0,North,3.5,-,0.03,,Overcast,350,2013-02-12 15:36:00
6:56 AM,33.8,30.2,87,29.68,3.0,NNW,6.9,-,0.03,,Overcast,330,2013-02-12 15:56:00
7:16 AM,33.8,30.2,87,29.68,3.0,NNW,4.6,-,0.01,,Overcast,330,2013-02-12 16:16:00
7:36 AM,33.8,28.4,81,29.68,7.0,NW,3.5,-,0.01,,Overcast,320,2013-02-12 16:36:00
7:56 AM,33.8,30.2,87,29.68,7.0,NW,5.8,-,0.01,,Overcast,320,2013-02-12 16:56:00
8:16 AM,33.8,30.2,87,29.68,7.0,WSW,5.8,-,N/A,,Overcast,240,2013-02-12 17:16:00
8:36 AM,33.8,30.2,87,29.69,7.0,NW,3.5,-,N/A,,Overcast,310,2013-02-12 17:36:00
8:56 AM,35.6,30.2,81,29.69,10.0,West,5.8,-,N/A,,Overcast,270,2013-02-12 17:56:00
9:16 AM,35.6,30.2,81,29.70,10.0,West,6.9,-,N/A,,Overcast,270,2013-02-12 18:16:00
9:36 AM,35.6,30.2,81,29.71,10.0,WNW,5.8,-,N/A,,Overcast,290,2013-02-12 18:36:00
9:56 AM,35.6,32.0,87,29.72,10.0,WSW,4.6,-,N/A,,Overcast,250,2013-02-12 18:56:00
10:16 AM,35.6,30.2,81,29.73,10.0,West,5.8,-,N/A,,Overcast,260,2013-02-12 19:16:00
10:36 AM,35.6,32.0,87,29.74,10.0,West,3.5,-,N/A,,Overcast,270,2013-02-12 19:36:00
10:56 AM,35.6,32.0,87,29.74,10.0,West,5.8,-,N/A,,Overcast,260,2013-02-12 19:56:00
11:16 AM,35.6,32.0,87,29.75,10.0,SSW,4.6,-,N/A,,Overcast,210,2013-02-12 20:16:00
11:36 AM,37.4,32.0,81,29.77,10.0,WSW,4.6,-,N/A,,Overcast,250,2013-02-12 20:36:00
11:56 AM,37.4,33.8,87,29.77,10.0,WSW,9.2,-,N/A,,Overcast,250,2013-02-12 20:56:00
12:16 PM,37.4,32.0,81,29.79,10.0,West,10.4,-,N/A,,Overcast,270,2013-02-12 21:16:00
12:36 PM,37.4,32.0,81,29.80,10.0,West,11.5,-,N/A,,Overcast,270,2013-02-12 21:36:00
12:56 PM,37.4,32.0,81,29.82,10.0,West,10.4,-,N/A,,Overcast,260,2013-02-12 21:56:00
1:16 PM,37.4,30.2,75,29.83,10.0,West,10.4,-,N/A,,Overcast,260,2013-02-12 22:16:00
1:36 PM,37.4,30.2,75,29.84,10.0,West,15.0,20.7,N/A,,Overcast,280,2013-02-12 22:36:00
1:56 PM,39.2,30.2,70,29.85,10.0,West,12.7,18.4,N/A,,Mostly Cloudy,270,2013-02-12 22:56:00
2:16 PM,39.2,30.2,70,29.87,10.0,West,10.4,18.4,N/A,,Mostly Cloudy,270,2013-02-12 23:16:00
2:36 PM,37.4,28.4,70,29.88,10.0,West,11.5,-,N/A,,Mostly Cloudy,270,2013-02-12 23:36:00
2:56 PM,37.4,28.4,70,29.89,10.0,West,11.5,17.3,N/A,,Mostly Cloudy,270,2013-02-12 23:56:00
3:16 PM,37.4,28.4,70,29.91,10.0,West,15.0,18.4,N/A,,Mostly Cloudy,270,2013-02-13 00:16:00
3:36 PM,37.4,28.4,70,29.94,10.0,West,13.8,19.6,N/A,,Mostly Cloudy,270,2013-02-13 00:36:00
3:56 PM,37.4,28.4,70,29.95,10.0,West,17.3,21.9,N/A,,Mostly Cloudy,280,2013-02-13 00:56:00
4:16 PM,37.4,28.4,70,29.96,10.0,WNW,15.0,18.4,N/A,,Mostly Cloudy,300,2013-02-13 01:16:00
4:36 PM,37.4,26.6,65,29.98,10.0,WNW,15.0,-,N/A,,Mostly Cloudy,290,2013-02-13 01:36:00
4:56 PM,37.4,26.6,65,29.99,10.0,WNW,12.7,-,N/A,,Mostly Cloudy,290,2013-02-13 01:56:00
5:16 PM,37.4,26.6,65,30.00,10.0,West,13.8,17.3,N/A,,Mostly Cloudy,280,2013-02-13 02:16:00
5:36 PM,37.4,26.6,65,30.02,10.0,WNW,10.4,-,N/A,,Mostly Cloudy,290,2013-02-13 02:36:00
5:56 PM,35.6,26.6,70,30.03,10.0,WNW,8.1,-,N/A,,Mostly Cloudy,290,2013-02-13 02:56:00
6:16 PM,35.6,26.6,70,30.04,10.0,West,6.9,-,N/A,,Mostly Cloudy,280,2013-02-13 03:16:00
6:36 PM,35.6,26.6,70,30.05,10.0,West,5.8,-,N/A,,Mostly Cloudy,280,2013-02-13 03:36:00
6:56 PM,35.6,26.6,70,30.06,10.0,West,4.6,-,N/A,,Clear,270,2013-02-13 03:56:00
7:16 PM,35.6,26.6,70,30.07,10.0,West,4.6,-,N/A,,Clear,280,2013-02-13 04:16:00
7:36 PM,35.6,26.6,70,30.09,10.0,West,4.6,-,N/A,,Clear,260,2013-02-13 04:36:00
7:56 PM,35.6,26.6,70,30.09,10.0,West,5.8,-,N/A,,Clear,270,2013-02-13 04:56:00
8:16 PM,33.8,28.4,81,30.10,10.0,South,3.5,-,N/A,,Clear,170,2013-02-13 05:16:00
8:36 PM,33.8,28.4,81,30.11,10.0,SE,3.5,-,N/A,,Clear,140,2013-02-13 05:36:00
8:56 PM,33.8,28.4,81,30.12,10.0,ESE,3.5,-,N/A,,Clear,110,2013-02-13 05:56:00
9:16 PM,33.8,28.4,81,30.13,6.0,SSE,4.6,-,N/A,,Overcast,160,2013-02-13 06:16:00
9:36 PM,33.8,28.4,81,30.14,6.0,ESE,4.6,-,N/A,,Overcast,120,2013-02-13 06:36:00
9:56 PM,33.8,30.2,87,30.15,6.0,SE,5.8,-,N/A,,Overcast,140,2013-02-13 06:56:00
10:16 PM,33.8,30.2,87,30.16,6.0,SE,4.6,-,N/A,,Overcast,130,2013-02-13 07:16:00
10:36 PM,33.8,30.2,87,30.17,6.0,SE,5.8,-,N/A,,Overcast,130,2013-02-13 07:36:00
10:56 PM,33.8,30.2,87,30.18,6.0,SE,4.6,-,N/A,,Overcast,130,2013-02-13 07:56:00
11:16 PM,33.8,28.4,81,30.19,10.0,SE,4.6,-,N/A,,Overcast,130,2013-02-13 08:16:00
11:36 PM,33.8,28.4,81,30.19,10.0,SSE,5.8,-,N/A,,Overcast,150,2013-02-13 08:36:00
11:56 PM,33.8,28.4,81,30.20,10.0,South,3.5,-,N/A,,Overcast,170,2013-02-13 08:56:00